EW0890 Weather Reports


Display with metric or nautical units.
time (UTC)temp
F
wind
direction
speed
MPH
gust
MPH
rain 1hr
in
rain 24hr
in
rain mn
in
humidity
%
barometer
mb
20260507203025 57 257 12.0 14.0 0.02 0.02 0.02 69 1012.1
20260507202503 56 254 11.0 14.0 0.02 0.02 0.02 69 1012.1
20260507202003 54 220 9.0 12.0 0.02 0.02 0.02 73 1012.3
20260507201509 54 247 7.0 13.0 0.02 0.02 0.02 78 1012.7
20260507201004 54 259 10.0 16.0 0.02 0.02 0.02 76 1013.1
20260507200504 53 264 12.0 16.0 0.02 0.02 0.02 74 1013.2
20260507195504 52 270 10.0 19.0 0.02 0.02 0.02 78 1013.4
20260507195006 52 285 12.0 19.0 0.02 0.02 0.02 77 1013.6
20260507194519 52 266 10.0 19.0 0.02 0.02 0.02 77 1014.0
20260507194006 52 325 3.0 6.0 0.01 0.01 0.01 78 1014.0
20260507193506 53 63 2.0 9.0 0.01 0.01 0.01 76 1013.9
20260507192508 55 323 4.0 7.0 0.00 0.00 0.00 66 1013.7
20260507192011 55 327 1.0 5.0 0.00 0.00 0.00 67 1013.2
20260507191526 55 291 1.0 27.0 0.00 0.00 0.00 64 1012.9
20260507191004 56 352 2.0 37.0 0.00 0.00 0.00 61 1013.2
20260507190504 57 274 22.0 37.0 0.00 0.00 0.00 52 1013.4
20260507185503 61 279 12.0 22.0 0.00 0.00 0.00 41 1012.6
20260507185005 61 266 17.0 22.0 0.00 0.00 0.00 40 1012.4
20260507184006 61 257 18.0 25.0 0.00 0.00 0.00 39 1012.3
20260507183504 61 269 20.0 25.0 0.00 0.00 0.00 40 1012.3
20260507183032 61 259 16.0 24.0 0.00 0.00 0.00 41 1012.4
20260507182505 61 251 16.0 24.0 0.00 0.00 0.00 40 1012.4
20260507182009 62 251 17.0 24.0 0.00 0.00 0.00 39 1012.4
20260507181520 61 269 15.0 20.0 0.00 0.00 0.00 41 1012.5
20260507181013 62 269 15.0 28.0 0.00 0.00 0.00 38 1012.7
20260507180507 62 274 16.0 28.0 0.00 0.00 0.00 38 1012.7
20260507180036 63 249 17.0 22.0 0.00 0.00 0.00 37 1012.8
20260507175507 62 223 16.0 25.0 0.00 0.00 0.00 37 1012.9
20260507175004 62 256 17.0 25.0 0.00 0.00 0.00 38 1013.0
20260507174511 62 218 17.0 25.0 0.00 0.00 0.00 36 1013.1
20260507174004 62 255 19.0 25.0 0.00 0.00 0.00 37 1013.3
20260507173505 61 258 13.0 25.0 0.00 0.00 0.00 38 1013.3
20260507173016 60 251 16.0 25.0 0.00 0.00 0.00 41 1013.4
20260507172506 60 260 18.0 26.0 0.00 0.00 0.00 41 1013.4
20260507172008 61 229 19.0 26.0 0.00 0.00 0.00 38 1013.5
20260507171520 60 259 15.0 25.0 0.00 0.00 0.00 37 1013.7
20260507171007 60 229 16.0 24.0 0.00 0.00 0.00 37 1013.9
20260507170507 60 240 18.0 23.0 0.00 0.00 0.00 38 1013.8
20260507170024 60 229 16.0 21.0 0.00 0.00 0.00 39 1013.8
20260507165506 60 261 15.0 23.0 0.00 0.00 0.00 37 1013.9
20260507165008 60 232 19.0 23.0 0.00 0.00 0.00 37 1013.9
20260507164524 61 225 14.0 23.0 0.00 0.00 0.00 36 1014.0
20260507164004 60 238 14.0 24.0 0.00 0.00 0.00 38 1014.1
20260507163505 60 248 17.0 24.0 0.00 0.00 0.00 37 1014.2
20260507163012 59 238 14.0 23.0 0.00 0.00 0.00 40 1014.3
20260507162506 59 259 15.0 23.0 0.00 0.00 0.00 37 1014.4
20260507162005 59 255 16.0 23.0 0.00 0.00 0.00 37 1014.5
20260507161533 60 250 16.0 23.0 0.00 0.00 0.00 36 1014.4
20260507161008 59 245 16.0 22.0 0.00 0.00 0.00 39 1014.4
20260507160509 59 250 12.0 22.0 0.00 0.00 0.00 40 1014.4
20260507160033 59 225 15.0 21.0 0.00 0.00 0.00 41 1014.5
20260507155507 58 240 14.0 23.0 0.00 0.00 0.00 41 1014.7
20260507155010 58 257 14.0 23.0 0.00 0.00 0.00 42 1014.7
20260507154532 58 252 16.0 23.0 0.00 0.00 0.00 41 1014.9
20260507154010 58 252 16.0 22.0 0.00 0.00 0.00 40 1014.9
20260507153508 58 252 13.0 22.0 0.00 0.00 0.00 43 1014.9
20260507153026 57 245 16.0 28.0 0.00 0.00 0.00 44 1015.0
20260507152506 56 259 16.0 28.0 0.00 0.00 0.00 42 1015.2
20260507152004 56 258 12.0 20.0 0.00 0.00 0.00 42 1015.2
20260507151532 56 264 14.0 21.0 0.00 0.00 0.00 44 1015.1
20260507151007 56 256 15.0 22.0 0.00 0.00 0.00 45 1015.1
20260507150504 56 264 13.0 22.0 0.00 0.00 0.00 45 1015.1
20260507150022 56 252 14.0 20.0 0.00 0.00 0.00 44 1015.1
20260507145507 56 241 15.0 20.0 0.00 0.00 0.00 42 1015.2
20260507145007 56 240 13.0 18.0 0.00 0.00 0.00 45 1015.2
20260507144521 55 269 13.0 18.0 0.00 0.00 0.00 45 1015.3
20260507144008 55 241 13.0 18.0 0.00 0.00 0.00 47 1015.3
20260507143507 55 233 13.0 16.0 0.00 0.00 0.00 48 1015.4
20260507143006 55 266 14.0 17.0 0.00 0.00 0.00 49 1015.4
20260507142504 54 243 12.0 17.0 0.00 0.00 0.00 50 1015.5
20260507142005 54 243 12.0 16.0 0.00 0.00 0.00 51 1015.5
20260507141512 53 235 13.0 17.0 0.00 0.00 0.00 52 1015.6
20260507141007 53 252 13.0 17.0 0.00 0.00 0.00 50 1015.7
20260507140505 53 231 12.0 16.0 0.00 0.00 0.00 50 1015.6
20260507140019 53 228 11.0 16.0 0.00 0.00 0.00 50 1015.6
20260507135508 53 222 11.0 15.0 0.00 0.00 0.00 55 1015.6
20260507135009 52 227 9.0 14.0 0.00 0.00 0.00 55 1015.7
20260507134529 52 219 10.0 14.0 0.00 0.00 0.00 56 1015.8
20260507134007 52 235 9.0 13.0 0.00 0.00 0.00 53 1015.9
20260507133510 51 251 9.0 12.0 0.00 0.00 0.00 54 1015.8
20260507133022 51 225 9.0 11.0 0.00 0.00 0.00 56 1015.8
20260507132503 51 236 7.0 10.0 0.00 0.00 0.00 55 1015.8
20260507132003 50 217 7.0 10.0 0.00 0.00 0.00 59 1015.9
20260507131517 50 232 6.0 9.0 0.00 0.00 0.00 59 1015.9
20260507131004 49 247 6.0 9.0 0.00 0.00 0.00 59 1015.9
20260507130508 49 230 7.0 8.0 0.00 0.00 0.00 60 1016.0
20260507130013 49 238 6.0 8.0 0.00 0.00 0.00 62 1016.0
20260507125505 48 224 6.0 8.0 0.00 0.00 0.00 64 1016.0
20260507125012 48 240 5.0 6.0 0.00 0.00 0.00 68 1016.0
20260507124515 47 258 5.0 6.0 0.00 0.00 0.00 68 1016.0
20260507124005 47 236 5.0 6.0 0.00 0.00 0.00 69 1016.0
20260507123506 46 241 5.0 6.0 0.00 0.00 0.00 73 1016.0
20260507123021 46 229 5.0 6.0 0.00 0.00 0.00 72 1015.8
20260507122511 45 236 4.0 6.0 0.00 0.00 0.00 74 1015.8
20260507122012 44 227 4.0 6.0 0.00 0.00 0.00 74 1015.6
20260507121526 44 225 5.0 6.0 0.00 0.00 0.00 74 1015.6
20260507121003 43 202 4.0 5.0 0.00 0.00 0.00 77 1015.5
20260507120507 42 219 3.0 5.0 0.00 0.00 0.00 80 1015.5
20260507120011 41 213 3.0 4.0 0.00 0.00 0.00 82 1015.4
20260507115504 40 206 2.0 3.0 0.00 0.00 0.00 85 1015.5
20260507115007 39 205 2.0 3.0 0.00 0.00 0.00 87 1015.6
20260507114524 39 204 1.0 3.0 0.00 0.00 0.00 88 1015.5
20260507114006 38 201 2.0 3.0 0.00 0.00 0.00 88 1015.5
20260507113506 38 172 1.0 2.0 0.00 0.00 0.00 88 1015.5
20260507113020 37 169 1.0 2.0 0.00 0.00 0.00 88 1015.3
20260507112507 37 168 0.0 1.0 0.00 0.00 0.00 88 1015.3
20260507112007 37 207 0.0 0.0 0.00 0.00 0.00 86 1015.3
20260507111524 37 207 0.0 0.0 0.00 0.00 0.00 85 1015.3
20260507111008 37 207 0.0 0.0 0.00 0.00 0.00 84 1015.3
20260507110508 37 207 0.0 0.0 0.00 0.00 0.00 84 1015.3
20260507110035 37 207 0.0 0.0 0.00 0.00 0.00 84 1015.3
20260507105507 37 207 0.0 0.0 0.00 0.00 0.00 83 1015.2
20260507105003 38 223 0.0 0.0 0.00 0.00 0.00 82 1015.2
20260507104515 38 224 0.0 0.0 0.00 0.00 0.00 82 1015.2
20260507104006 38 225 0.0 0.0 0.00 0.00 0.00 81 1015.2
20260507103504 38 224 0.0 0.0 0.00 0.00 0.00 82 1015.2
20260507103026 38 193 0.0 0.0 0.00 0.00 0.00 84 1015.2
20260507102506 38 236 0.0 0.0 0.00 0.00 0.00 84 1015.3
20260507102007 38 232 0.0 0.0 0.00 0.00 0.00 84 1015.4
20260507101522 38 232 0.0 0.0 0.00 0.00 0.00 85 1015.3
20260507101009 38 238 0.0 0.0 0.00 0.00 0.00 85 1015.4
20260507100507 38 236 0.0 0.0 0.00 0.00 0.00 84 1015.4
20260507100029 39 236 0.0 0.0 0.00 0.00 0.00 84 1015.3
20260507095507 39 235 0.0 0.0 0.00 0.00 0.00 84 1015.4
20260507095008 39 236 0.0 0.0 0.00 0.00 0.00 83 1015.4
20260507094528 40 246 0.0 0.0 0.00 0.00 0.00 82 1015.4
20260507094010 40 246 0.0 0.0 0.00 0.00 0.00 82 1015.4
20260507093503 40 246 0.0 0.0 0.00 0.00 0.00 81 1015.3
20260507093017 40 246 0.0 0.0 0.00 0.00 0.00 81 1015.3
20260507092503 40 246 0.0 0.0 0.00 0.00 0.00 81 1015.4
20260507092006 40 245 0.0 0.0 0.00 0.00 0.00 82 1015.4
20260507091519 40 261 0.0 0.0 0.00 0.00 0.00 82 1015.5
20260507091009 40 261 0.0 0.0 0.00 0.00 0.00 82 1015.5
20260507090507 40 261 0.0 0.0 0.00 0.00 0.00 83 1015.5
20260507090035 40 261 0.0 0.0 0.00 0.00 0.00 83 1015.6
20260507085508 40 261 0.0 0.0 0.00 0.00 0.00 83 1015.6
20260507085008 40 261 0.0 0.0 0.00 0.00 0.00 83 1015.7
20260507084537 40 260 0.0 0.0 0.00 0.00 0.00 83 1015.7
20260507084008 40 261 0.0 0.0 0.00 0.00 0.00 83 1015.7
20260507083508 40 261 0.0 0.0 0.00 0.00 0.00 84 1015.7
20260507083026 40 261 0.0 0.0 0.00 0.00 0.00 84 1015.7
20260507082508 40 261 0.0 0.0 0.00 0.00 0.00 84 1015.7
20260507082003 40 260 0.0 0.0 0.00 0.00 0.00 84 1015.7
20260507081515 40 261 0.0 0.0 0.00 0.00 0.00 83 1015.6
20260507081006 40 261 0.0 0.0 0.00 0.00 0.00 83 1015.6
20260507080506 40 261 0.0 0.0 0.00 0.00 0.00 83 1015.6
20260507080019 40 265 0.0 0.0 0.00 0.00 0.00 83 1015.7
20260507075508 39 248 0.0 0.0 0.00 0.00 0.00 84 1015.7
20260507075010 39 248 0.0 0.0 0.00 0.00 0.00 84 1015.7
20260507074537 39 248 0.0 0.0 0.00 0.00 0.00 84 1015.7
20260507074008 39 248 0.0 0.0 0.00 0.00 0.00 84 1015.8
20260507073507 39 248 0.0 1.0 0.00 0.00 0.00 83 1015.7
20260507073025 39 248 0.0 1.0 0.00 0.00 0.00 82 1015.8
20260507072510 39 248 0.0 2.0 0.00 0.00 0.00 82 1015.8
20260507072012 39 247 1.0 2.0 0.00 0.00 0.00 81 1015.9
20260507071527 39 264 2.0 2.0 0.00 0.00 0.00 80 1015.9
20260507071008 39 267 1.0 2.0 0.00 0.00 0.00 80 1015.9
20260507070510 39 271 1.0 2.0 0.00 0.00 0.00 79 1015.9
20260507070016 39 273 1.0 2.0 0.00 0.00 0.00 78 1015.9
20260507065508 39 281 2.0 2.0 0.00 0.00 0.00 79 1015.9
20260507065007 39 268 1.0 2.0 0.00 0.00 0.00 79 1015.9
20260507064521 39 280 1.0 2.0 0.00 0.00 0.00 79 1015.9
20260507064007 38 280 1.0 2.0 0.00 0.00 0.00 80 1016.0
20260507063510 38 249 0.0 2.0 0.00 0.00 0.00 80 1016.0
20260507063025 38 266 0.0 1.0 0.00 0.00 0.00 80 1015.9
20260507062508 38 266 0.0 1.0 0.00 0.00 0.00 80 1015.9
20260507061527 39 275 0.0 1.0 0.00 0.00 0.00 80 1016.0
20260507061009 38 283 0.0 1.0 0.00 0.00 0.00 80 1016.0
20260507060508 38 283 0.0 0.0 0.00 0.00 0.00 81 1016.0
20260507060027 38 272 0.0 0.0 0.00 0.00 0.00 82 1016.0
20260507055511 38 272 0.0 1.0 0.00 0.00 0.00 81 1016.1
20260507055009 39 272 0.0 1.0 0.00 0.00 0.00 79 1016.1
20260507054515 39 272 0.0 2.0 0.00 0.00 0.00 78 1016.1
20260507053506 39 272 1.0 2.0 0.00 0.00 0.00 79 1016.1
20260507053021 38 272 0.0 0.0 0.00 0.00 0.00 81 1016.1
20260507052508 38 273 0.0 0.0 0.00 0.00 0.00 82 1016.1
20260507051534 39 267 0.0 0.0 0.00 0.00 0.00 83 1016.2
20260507050028 39 266 0.0 0.0 0.00 0.00 0.00 82 1016.2
20260507045510 39 266 0.0 0.0 0.00 0.00 0.00 82 1016.1
20260507045010 40 266 0.0 0.0 0.00 0.00 0.00 81 1016.1
20260507044527 40 266 0.0 0.0 0.00 0.00 0.00 81 1016.1
20260507044009 40 270 0.0 0.0 0.00 0.00 0.00 80 1016.0
20260507043510 39 287 0.0 0.0 0.00 0.00 0.00 80 1016.1
20260507043025 39 287 0.0 0.0 0.00 0.00 0.00 81 1016.1
20260507042506 39 287 0.0 0.0 0.00 0.00 0.00 81 1016.2
20260507041523 39 287 0.0 1.0 0.00 0.00 0.00 80 1016.2
20260507041003 39 287 0.0 1.0 0.00 0.00 0.00 80 1016.2
20260507040503 39 287 0.0 1.0 0.00 0.00 0.00 81 1016.2
20260507040006 39 287 0.0 0.0 0.00 0.00 0.00 81 1016.2
20260507035503 39 287 0.0 0.0 0.00 0.00 0.00 81 1016.2
20260507035003 39 287 0.0 0.0 0.00 0.00 0.00 81 1016.2
20260507034512 40 286 0.0 0.0 0.00 0.00 0.00 81 1016.2
20260507033019 41 287 0.0 0.0 0.00 0.00 0.00 77 1016.2
20260507031519 43 287 0.0 1.0 0.00 0.00 0.00 74 1016.4
20260507030511 44 287 0.0 2.0 0.00 0.00 0.00 68 1016.4
20260507030024 44 276 1.0 1.0 0.00 0.00 0.00 68 1016.4
20260507025505 44 277 0.0 1.0 0.00 0.00 0.00 69 1016.3
20260507025003 44 277 0.0 2.0 0.00 0.00 0.00 69 1016.2
20260507024508 44 277 0.0 2.0 0.00 0.00 0.00 69 1016.3
20260507024004 44 273 0.0 1.0 0.00 0.00 0.00 68 1016.2
20260507023010 44 290 0.0 1.0 0.00 0.00 0.00 67 1016.2
20260507022006 45 288 0.0 1.0 0.00 0.00 0.00 66 1016.1
20260507021007 45 315 0.0 2.0 0.00 0.00 0.00 65 1016.0
20260507015511 47 311 1.0 3.0 0.00 0.00 0.00 62 1015.7
20260507014004 48 321 1.0 5.0 0.00 0.00 0.00 59 1015.6
20260507013503 48 305 1.0 5.0 0.00 0.00 0.00 58 1015.6
20260507013007 48 331 1.0 4.0 0.00 0.00 0.00 58 1015.5
20260507012503 49 307 1.0 4.0 0.00 0.00 0.00 57 1015.4
20260507011526 49 243 2.0 5.0 0.00 0.00 0.00 58 1015.3
20260507010506 50 353 1.0 3.0 0.00 0.00 0.00 56 1015.2
20260507010019 50 323 1.0 3.0 0.00 0.00 0.00 54 1015.2
20260507005507 51 276 0.0 3.0 0.00 0.00 0.00 53 1015.2
20260507005008 52 321 1.0 4.0 0.00 0.00 0.00 52 1015.1
20260507004522 52 310 1.0 4.0 0.00 0.00 0.00 53 1015.0
20260507003022 53 321 2.0 4.0 0.00 0.00 0.00 48 1014.9
20260507002504 54 348 1.0 5.0 0.00 0.00 0.00 48 1014.9
20260507002003 54 282 1.0 6.0 0.00 0.00 0.00 47 1014.8
20260507001508 54 280 1.0 6.0 0.00 0.00 0.00 46 1014.8
20260507001004 55 335 1.0 10.0 0.00 0.00 0.00 45 1014.8
20260507000503 55 330 2.0 10.0 0.00 0.00 0.00 45 1014.7
20260507000015 55 249 2.0 7.0 0.00 0.00 0.00 45 1014.8
20260506235504 55 326 1.0 7.0 0.00 0.00 0.00 44 1014.9
20260506235007 55 285 2.0 8.0 0.00 0.00 0.00 44 1014.9
20260506234008 55 316 2.0 9.0 0.00 0.00 0.00 44 1014.9
20260506233506 55 300 4.0 13.0 0.00 0.00 0.00 46 1014.9
20260506232011 56 288 10.0 13.0 0.00 0.00 0.00 40 1014.8
20260506231005 57 281 2.0 9.0 0.00 0.00 0.00 42 1014.9
20260506230503 57 320 1.0 11.0 0.00 0.00 0.00 41 1014.9
20260506230015 57 276 2.0 11.0 0.00 0.00 0.00 44 1014.8
20260506225503 57 321 2.0 15.0 0.00 0.00 0.00 44 1014.9
20260506225004 58 288 2.0 17.0 0.00 0.00 0.00 42 1014.8
20260506224007 58 319 4.0 12.0 0.00 0.00 0.00 43 1014.5
20260506223504 57 319 3.0 15.0 0.00 0.00 0.00 43 1014.5
20260506223021 57 282 11.0 15.0 0.00 0.00 0.00 40 1014.4
20260506222509 57 305 9.0 14.0 0.00 0.00 0.00 40 1014.4
20260506222009 58 292 6.0 14.0 0.00 0.00 0.00 44 1014.4
20260506221522 58 275 10.0 13.0 0.00 0.00 0.00 41 1014.3
20260506221010 58 351 3.0 8.0 0.00 0.00 0.00 44 1014.3
20260506220510 56 304 1.0 8.0 0.00 0.00 0.00 49 1014.4
20260506220026 56 265 4.0 7.0 0.00 0.00 0.00 45 1014.4
20260506215506 56 319 2.0 7.0 0.00 0.00 0.00 45 1014.4
20260506215002 56 323 2.0 13.0 0.00 0.00 0.00 44 1014.6
20260506214518 56 328 5.0 13.0 0.00 0.00 0.00 48 1014.5
20260506214007 56 331 4.0 11.0 0.00 0.00 0.00 48 1014.5
20260506213506 56 333 2.0 11.0 0.00 0.00 0.00 44 1014.6
20260506212507 56 305 10.0 15.0 0.00 0.00 0.00 43 1014.6
20260506212007 56 335 1.0 15.0 0.00 0.00 0.00 47 1014.6
20260506211521 56 318 8.0 15.0 0.00 0.00 0.00 42 1014.6
20260506211007 57 269 4.0 13.0 0.00 0.00 0.00 47 1014.6
20260506210510 57 291 6.0 10.0 0.00 0.00 0.00 40 1014.5
20260506210025 57 298 2.0 12.0 0.00 0.00 0.00 44 1014.6
20260506205511 57 334 2.0 12.0 0.00 0.00 0.00 46 1014.4
20260506205011 57 271 2.0 11.0 0.00 0.00 0.00 50 1014.5
20260506204526 57 350 1.0 17.0 0.00 0.00 0.00 46 1014.5
20260506204003 56 267 9.0 17.0 0.00 0.00 0.00 44 1014.6
20260506203502 56 271 8.0 18.0 0.00 0.00 0.00 43 1014.7